Location: Colebrook
(42.0017°N, 73.0973°W)
Time: 16:03:52
(UTC-05:00)

Vanguard 2 - Pass Details

Date: 25 October 2021
Orbit: 554 x 2936 km, 32.9° (Epoch: 04 December)

Event Time Altitude Azimuth Distance (km) Brightness Sun altitude
Exits shadow 06:10:01 14° 254° (WSW) 2,973 9.9 -13.0°
Maximum altitude 06:15:17 29° 204° (SSW) 1,724 9.1 -12.1°
Drops below altitude 10° 06:19:52 10° 145° (SE) 2,295 10.6 -11.2°
Sets 06:22:10 0° 133° (SE) 3,031 11.6 -10.8°
